TimeCST,TemperatureF,Dew PointF,Humidity,Sea Level PressureIn,VisibilityMPH,Wind Direction,Wind SpeedMPH,Gust SpeedMPH,PrecipitationIn,Events,Conditions,WindDirDegrees,DateUTC
12:20 AM,30.0,21.0,69,30.23,10.0,NW,16.1,26.5,N/A,,Overcast,320,2013-03-06 06:20:00
12:32 AM,30.0,19.9,66,30.24,10.0,NW,17.3,-,N/A,,Overcast,320,2013-03-06 06:32:00
12:54 AM,30.0,21.9,72,30.28,10.0,NNW,19.6,-,N/A,,Overcast,330,2013-03-06 06:54:00
1:44 AM,30.0,21.0,69,30.27,10.0,NNW,25.3,36.8,0.00,,Overcast,330,2013-03-06 07:44:00
1:54 AM,30.0,19.0,64,30.29,10.0,North,21.9,35.7,0.00,,Overcast,350,2013-03-06 07:54:00
2:51 AM,28.4,19.4,69,30.27,10.0,NNW,16.1,-,N/A,,Overcast,330,2013-03-06 08:51:00
2:54 AM,28.9,19.9,69,30.30,10.0,NNW,19.6,-,N/A,,Overcast,330,2013-03-06 08:54:00
3:23 AM,28.9,21.0,72,30.27,10.0,NW,15.0,-,N/A,,Overcast,320,2013-03-06 09:23:00
3:54 AM,28.9,19.9,69,30.31,10.0,NW,16.1,-,N/A,,Overcast,320,2013-03-06 09:54:00
4:06 AM,28.9,19.9,69,30.29,10.0,NW,15.0,-,N/A,,Overcast,320,2013-03-06 10:06:00
4:54 AM,28.9,19.9,69,30.34,10.0,NW,13.8,-,N/A,,Overcast,320,2013-03-06 10:54:00
5:37 AM,28.0,19.9,72,30.33,10.0,NW,11.5,-,N/A,,Overcast,310,2013-03-06 11:37:00
5:54 AM,28.0,21.0,75,30.37,10.0,NW,12.7,-,N/A,,Overcast,320,2013-03-06 11:54:00
6:01 AM,28.0,21.0,75,30.34,10.0,NW,13.8,-,N/A,,Overcast,320,2013-03-06 12:01:00
6:25 AM,28.0,21.0,75,30.35,10.0,NW,10.4,-,N/A,,Overcast,320,2013-03-06 12:25:00
6:33 AM,28.0,21.0,75,30.35,10.0,NW,9.2,-,N/A,,Overcast,310,2013-03-06 12:33:00
6:54 AM,28.0,21.0,75,30.39,10.0,NW,10.4,-,N/A,,Overcast,320,2013-03-06 12:54:00
7:54 AM,28.0,21.0,75,30.40,10.0,NNW,10.4,-,N/A,,Overcast,330,2013-03-06 13:54:00
8:54 AM,28.9,19.9,69,30.41,10.0,North,12.7,-,N/A,,Overcast,10,2013-03-06 14:54:00
9:54 AM,28.9,19.0,67,30.42,10.0,North,12.7,-,N/A,,Overcast,10,2013-03-06 15:54:00
10:54 AM,30.0,19.0,64,30.42,10.0,NNW,8.1,-,N/A,,Overcast,340,2013-03-06 16:54:00
11:54 AM,32.0,19.0,59,30.42,10.0,Calm,Calm,-,N/A,,Overcast,0,2013-03-06 17:54:00
12:54 PM,34.0,19.0,54,30.40,10.0,NNE,5.8,-,N/A,,Overcast,20,2013-03-06 18:54:00
1:54 PM,33.1,19.9,59,30.39,10.0,Calm,Calm,-,N/A,,Mostly Cloudy,0,2013-03-06 19:54:00
2:27 PM,32.0,19.9,61,30.36,10.0,SSE,3.5,-,N/A,,Overcast,160,2013-03-06 20:27:00
2:54 PM,35.1,19.9,54,30.38,10.0,Variable,5.8,-,N/A,,Mostly Cloudy,0,2013-03-06 20:54:00
3:54 PM,35.1,19.9,54,30.38,10.0,NW,8.1,-,N/A,,Clear,310,2013-03-06 21:54:00
4:54 PM,34.0,21.0,59,30.36,10.0,North,5.8,-,N/A,,Clear,350,2013-03-06 22:54:00
5:54 PM,32.0,21.0,64,30.37,10.0,NNW,4.6,-,N/A,,Clear,340,2013-03-06 23:54:00
6:54 PM,30.0,19.9,66,30.36,10.0,North,3.5,-,N/A,,Clear,350,2013-03-07 00:54:00
7:54 PM,28.9,19.9,69,30.35,10.0,North,4.6,-,N/A,,Clear,10,2013-03-07 01:54:00
8:54 PM,28.9,19.9,69,30.37,10.0,North,4.6,-,N/A,,Clear,10,2013-03-07 02:54:00
9:54 PM,28.0,19.0,69,30.36,10.0,North,3.5,-,N/A,,Clear,10,2013-03-07 03:54:00
10:54 PM,27.0,19.0,72,30.35,10.0,NE,3.5,-,N/A,,Clear,50,2013-03-07 04:54:00
11:54 PM,25.0,19.0,78,30.35,10.0,NE,5.8,-,N/A,,Clear,50,2013-03-07 05:54:00